PLEIADES NEO 3

Last updated on Mon Sep 07 2026 00:02:46 GMT+0000 (Coordinated Universal Time)

1 48268U 21034A 26249.62977361 .00000350 00000+0 51053-4 0 9997 2 48268 97.8946 323.2250 0001510 88.3433 271.7953 14.81673721289717
UTC large
Height (km)
Speed (km/s)
/
Latitude / Longitude
Inclination (degrees)
Orbital Period (minutes)
Azimuth
Elevation
Range (km)
Doppler Factor

Next 0 passes for location: London (51.5072 / 0.1276)

No passes found over London.
PLEIADES NEO 3